Location: Newark
(41.9364°N, 2.8061°E)
Time: 05:40:10
(UTC+00:00)

Envisat - Visible Passes

Search period start: 02 August 2021 00:00
Search period end: 12 August 2021 00:00
Orbit: 764 x 766 km, 98.2° (Epoch: 01 August)

Date Brightness Start Highest point End Pass type
(mag) Time Alt. Az. Time Alt. Az. Time Alt. Az.
02 Aug 5.5 04:10:03 10° NE 04:14:03 23° E 04:18:01 10° SE visible
05 Aug 5.7 03:59:00 10° NE 04:02:27 18° E 04:05:53 10° SE visible
08 Aug 5.8 03:48:11 10° ENE 03:50:50 14° E 03:53:28 10° ESE visible
10 Aug 5.4 04:12:18 10° NE 04:16:26 25° E 04:20:34 10° SSE visible
11 Aug 6.1 03:38:02 10° ENE 03:39:12 11° E 03:40:22 10° E visible
